User: anonymous   Login
Location: Cointrin
(46.2167°N, 6.1167°E)
Time: 21:52:34
(UTC+00:00)
Language:

Cosmos 968 Rocket - Orbit

View from above orbital plane
View from above orbital plane
View from above satellite
View from above satellite

Ground track
Ground track

The orbit data is extracted from the following two-line orbital elements,

1 10521U 77119B   24108.05949805  .00000830  00000-0  26306-3 0  9990
2 10521  74.0271 326.3629 0019815  91.2847 269.0579 14.41486945431730
Epoch (UTC): 17 April 2024 01:25:40
Eccentricity: 0.0019815
inclination: 74.0271°
perigee height: 739 km
apogee height: 768 km
right ascension of ascending node: 326.3629°
argument of perigee: 91.2847°
revolutions per day: 14.41486945
mean anomaly at epoch: 269.0579°
orbit number at epoch: 43173

The dashed part of the orbit path shows where the satellite is in the earth's shadow,  

DLR